Location: Ch�ze
(42.9000°N, 0.0333°W)
Time: 00:06:10
(UTC+00:00)

Cosmos 1939 Rocket - Pass Details

Date: 24 January 2021
Orbit: 530 x 585 km, 97.4° (Epoch: 24 February)

Event Time Altitude Azimuth Distance (km) Brightness Sun altitude
Rises 17:30:54 0° 151° (SSE) 2,791 6.3 -5.6°
Reaches altitude 10° 17:33:07 10° 145° (SE) 1,891 5.4 -6.0°
Maximum altitude 17:37:01 45° 73° (ENE) 794 3.2 -6.6°
Drops below altitude 10° 17:40:55 10° 1° (N) 1,880 5.3 -7.3°
Sets 17:43:07 0° 355° (N) 2,773 6.3 -7.7°
